Theta_e
357 354 352 354 359 357 347 338 313 319 315 308 310 312 312 324 326 321 320 324 319 328 331 329 330 331 326 324 326 329 329 319 323 309 306 327 347 350 352 353 355 356 356 357 359 358 358 359 360 360 357 362 363 363 363 362 362 361 361 362 362 362 362 362 363 363 363 363 363 363 364 364 364 364 364 364 363 363 364 364 364 364 364 363 364 364 363 363 363 363 364 365 365 365 365 365 365
348 347 346 351 351 344 332 337 316 312 312 308 310 316 316 324 322 317 318 321 323 326 328 328 329 331 332 331 331 329 326 332 333 329 335 343 347 349 353 354 355 354 356 357 358 358 359 359 360 359 360 361 362 363 362 362 362 361 362 362 363 363 363 362 363 364 364 364 364 364 364 364 364 365 364 364 364 364 363 364 364 365 365 364 365 366 364 364 365 364 365 365 365 365 365 365 365
342 342 356 358 351 343 335 331 311 309 307 305 310 315 322 319 316 320 324 326 327 328 328 327 329 329 329 330 325 326 317 335 335 337 336 344 341 344 353 355 356 356 357 358 358 358 359 360 361 361 362 363 363 362 362 361 361 362 362 362 362 363 363 363 363 363 364 364 364 365 364 364 364 365 363 363 363 363 364 364 364 364 365 365 365 366 365 364 364 364 365 365 365 365 365 365 365
345 349 347 352 336 341 323 320 314 310 306 307 309 318 320 317 319 324 328 329 328 328 328 326 324 331 328 323 325 331 328 330 336 336 335 340 341 349 352 355 357 357 358 358 358 358 359 360 362 362 362 363 362 362 362 361 362 362 362 362 362 363 363 363 363 363 364 364 364 364 364 364 364 364 364 363 363 363 363 363 363 364 364 364 364 364 364 363 364 365 364 365 365 365 365 365 364
345 350 354 350 335 324 322 317 315 313 307 310 307 317 320 322 323 328 330 330 328 328 327 326 324 329 331 327 329 323 326 334 336 340 340 344 350 350 353 356 356 356 356 357 358 359 360 363 363 362 362 362 362 362 362 362 362 362 362 362 363 363 363 364 364 363 363 364 364 363 363 363 363 364 363 364 363 363 363 362 363 363 363 363 363 363 364 363 364 364 365 364 363 364 364 364 364
344 342 358 350 331 338 326 314 313 312 314 319 314 316 322 325 326 327 329 329 328 328 328 326 324 324 325 328 332 327 333 325 336 339 343 344 349 351 354 357 355 355 355 356 357 358 359 364 363 362 362 362 362 362 363 362 362 362 362 362 362 362 363 364 363 364 364 364 363 363 362 362 363 363 363 363 362 362 362 362 363 362 363 363 363 363 363 364 364 365 365 364 363 364 363 363 362
340 344 346 344 339 337 315 312 311 314 317 322 320 322 324 326 325 325 325 325 328 327 328 325 327 326 322 328 332 336 340 340 338 341 346 347 349 352 355 354 354 353 355 355 357 358 360 363 363 362 362 362 363 363 363 362 362 362 362 362 362 363 363 363 362 363 363 363 362 362 362 362 362 362 362 362 362 362 362 362 362 362 362 362 363 364 364 364 365 364 364 364 363 363 362 362 362
354 339 338 327 322 321 315 313 313 318 319 325 325 322 326 330 327 324 322 323 322 323 326 327 327 325 323 333 324 336 341 343 344 348 348 348 350 353 354 353 352 353 355 356 357 359 363 363 362 362 362 363 363 363 362 362 362 362 362 362 363 363 363 363 362 362 363 363 362 362 361 362 362 362 362 362 362 361 361 361 361 363 363 362 363 364 364 365 364 363 363 363 362 362 362 361 361
346 343 343 328 317 320 314 312 315 324 322 326 326 329 339 332 331 328 325 327 326 325 325 326 328 322 324 327 327 334 339 345 348 351 349 350 351 352 353 352 352 352 355 356 358 359 360 362 362 362 362 362 363 363 362 362 362 362 362 362 363 363 362 362 362 362 363 363 362 362 362 362 362 362 362 361 361 361 360 361 362 362 362 363 363 364 364 364 364 363 362 361 360 359 359 359 358
341 340 325 325 322 312 313 315 314 323 323 327 326 327 332 336 330 330 324 325 326 327 328 330 330 324 328 324 328 333 337 345 347 346 348 349 351 352 352 353 354 354 354 356 358 358 358 364 363 363 362 362 363 363 363 362 363 362 362 362 362 362 362 362 362 363 363 362 362 362 362 363 363 362 361 360 360 361 361 361 361 362 362 363 363 363 364 364 364 363 363 361 359 359 359 359 359
329 339 338 321 316 312 310 313 317 322 325 327 327 332 335 337 333 326 327 326 331 326 328 331 326 326 327 326 328 339 343 345 344 342 347 350 351 351 351 353 354 355 355 357 357 358 360 360 364 363 363 363 364 363 363 363 363 362 362 362 362 362 362 362 362 362 362 362 362 362 362 363 363 362 361 361 360 360 360 361 363 362 362 363 363 364 364 364 364 364 363 363 361 360 359 359 359
325 327 329 316 314 311 315 316 320 322 325 326 326 335 335 336 334 326 325 323 326 326 326 330 324 330 325 325 326 338 342 343 344 346 348 349 350 351 352 353 355 356 357 356 357 358 359 360 360 363 363 363 363 364 364 364 363 361 361 362 362 362 362 362 362 361 361 362 362 362 362 362 363 363 362 361 361 360 360 359 360 363 363 363 364 364 365 364 364 364 364 363 362 361 360 359 360
327 327 323 317 315 320 319 318 318 323 322 324 326 336 339 337 330 329 327 326 326 325 326 331 332 331 322 325 332 338 338 341 344 347 347 348 349 352 354 354 356 356 356 357 357 357 358 358 358 360 361 363 363 364 364 363 362 362 362 362 361 362 362 362 362 361 361 362 362 362 362 363 363 363 363 363 362 360 360 359 360 361 363 363 364 364 364 364 364 364 364 363 362 362 361 360 359
329 329 322 312 325 322 321 319 320 318 319 326 332 338 339 334 333 334 330 325 326 325 330 334 332 331 325 328 330 332 336 342 345 346 347 348 351 352 353 355 355 355 356 357 356 357 357 359 359 358 359 359 359 362 363 363 363 362 362 362 362 361 361 361 362 361 361 361 362 362 362 363 363 363 363 364 363 361 361 361 362 363 363 363 364 364 364 363 363 363 362 362 362 362 363 362 360
335 338 324 320 319 322 324 319 318 320 318 328 334 336 336 341 338 337 330 325 329 333 334 337 334 329 320 325 324 331 337 342 344 346 347 349 351 352 353 354 354 355 355 356 357 357 357 358 358 357 359 357 358 357 358 360 363 363 363 362 362 362 361 361 362 362 361 361 361 361 362 363 363 363 364 363 364 363 362 363 362 363 363 364 363 363 364 364 363 362 362 362 363 363 364 364 363
339 330 323 315 315 317 319 321 326 320 319 331 335 339 333 336 344 336 336 336 329 333 334 327 335 328 329 327 329 335 340 343 345 346 347 347 349 350 352 353 353 354 354 355 356 356 357 357 356 357 357 356 355 355 356 358 361 362 363 362 362 361 361 361 362 362 360 361 361 361 362 361 361 361 364 362 363 363 364 362 363 364 364 364 364 363 363 363 363 363 362 363 363 363 364 364 364
342 331 315 313 312 317 317 321 321 314 323 332 336 336 330 331 341 344 345 338 327 328 333 332 329 334 330 331 335 340 342 346 348 345 345 345 346 347 349 350 350 351 353 354 354 355 356 355 356 355 356 356 356 355 355 356 359 362 360 362 362 361 360 360 362 362 361 360 360 361 361 356 355 355 357 356 362 362 362 363 363 364 364 364 364 364 363 363 363 362 363 363 364 364 364 364 365
335 322 314 312 313 316 322 324 324 327 324 329 332 334 332 327 334 338 344 333 330 329 328 330 332 333 334 335 338 341 343 344 344 343 342 342 344 343 344 346 348 348 350 351 354 355 355 355 355 355 355 356 355 356 356 357 359 359 355 356 358 359 360 360 358 357 361 355 361 357 354 357 351 350 353 362 358 360 361 364 363 363 364 363 363 364 363 363 363 363 363 364 364 365 365 360 361
326 321 316 311 316 320 329 330 330 326 326 332 335 335 335 332 333 336 330 327 328 327 325 328 328 331 334 335 338 340 341 342 342 342 341 341 342 342 343 345 346 347 348 350 352 354 354 354 355 355 355 355 355 354 355 357 353 351 352 354 358 360 360 360 356 356 351 353 353 353 355 352 351 352 353 358 357 362 363 363 363 362 362 363 362 363 363 363 364 364 364 365 365 366 363 357 358
332 322 316 316 324 326 332 335 332 336 334 331 332 335 335 336 336 340 330 325 329 323 321 326 326 327 330 333 336 339 340 340 341 341 341 341 342 343 343 343 343 346 348 349 350 354 354 354 354 354 354 354 353 353 354 352 350 350 350 350 352 353 353 354 352 351 351 352 352 350 351 352 352 350 359 361 363 358 357 361 363 362 362 362 362 361 363 364 364 365 365 365 367 366 359 357 358
330 323 318 321 329 327 333 339 338 338 337 334 333 334 332 338 336 339 334 323 324 324 327 327 326 328 330 333 335 337 338 338 339 340 340 341 343 344 344 344 344 346 348 349 352 352 353 354 354 353 354 353 353 354 352 350 351 350 349 349 351 351 351 352 351 350 350 350 349 350 351 353 352 350 350 352 352 353 353 354 354 354 353 352 362 353 352 354 360 356 356 361 358 359 358 357 357
329 324 326 330 331 332 338 341 341 338 337 332 330 327 329 340 341 336 334 321 320 325 329 330 331 331 332 333 335 335 335 336 338 338 340 341 342 342 343 344 347 348 349 348 349 351 352 353 354 353 353 353 353 353 351 353 353 349 349 350 350 350 350 351 351 351 349 349 348 349 354 353 350 348 350 349 349 349 349 351 351 352 351 351 358 352 351 351 352 353 354 355 355 356 358 357 356
318 326 329 331 332 332 338 343 342 338 334 329 328 333 337 334 334 338 337 331 332 343 332 332 333 334 334 335 335 334 334 334 335 336 338 339 340 341 342 344 345 344 348 347 349 350 352 353 354 352 350 352 353 353 352 354 352 351 350 351 350 350 351 351 351 350 349 348 349 353 352 352 351 349 350 349 348 348 350 351 351 351 350 350 353 353 352 352 351 351 352 353 353 353 353 353 352
325 321 333 332 335 333 338 337 339 338 334 332 335 338 331 331 326 337 332 338 345 342 334 334 334 335 335 334 334 333 334 334 334 336 336 338 340 341 343 344 345 346 346 346 347 349 352 352 353 351 349 350 350 352 352 351 352 352 351 354 352 353 352 352 352 350 349 348 350 353 356 352 352 351 350 349 348 348 352 353 353 352 353 353 354 354 352 352 352 351 350 350 350 351 351 351 350
327 328 333 334 335 336 337 336 336 336 335 338 336 331 331 332 333 333 331 337 343 339 335 334 334 334 334 333 333 333 334 335 335 336 337 338 342 344 345 345 345 345 344 345 347 349 351 352 352 350 350 349 350 352 351 350 351 351 352 352 350 355 350 351 351 352 350 350 350 352 355 351 352 353 351 352 351 351 353 354 353 354 355 354 354 353 353 352 352 351 350 349 349 350 350 350 350
328 330 332 333 333 336 335 335 336 336 335 336 333 331 332 333 336 332 333 338 340 339 332 333 333 332 332 333 333 333 333 334 335 335 335 342 343 343 343 343 344 344 345 346 347 348 350 352 351 350 351 350 351 351 349 349 349 350 351 350 350 354 349 350 352 351 351 349 349 350 353 352 352 351 352 352 352 352 352 353 354 354 353 354 353 351 353 353 352 350 349 349 349 349 349 349 351
333 333 333 332 334 334 338 332 333 335 334 334 330 327 329 333 333 323 334 341 344 337 332 332 331 331 332 333 333 334 333 333 334 335 338 341 342 341 342 343 344 344 346 345 347 348 351 351 351 352 352 354 351 350 348 348 349 349 351 349 350 352 350 352 352 351 352 350 349 350 351 355 351 351 352 351 353 352 352 353 353 353 352 351 351 350 351 352 351 349 348 348 348 348 349 349 350
335 335 333 333 335 336 335 333 331 331 328 332 331 326 328 331 331 325 334 341 343 332 331 331 330 330 331 332 333 333 333 333 332 336 337 338 339 340 341 341 343 344 345 345 346 348 350 351 352 352 353 353 351 348 350 348 348 349 350 349 350 351 352 351 351 351 353 351 351 351 351 353 357 352 353 353 353 353 353 353 353 352 351 351 351 350 350 351 351 350 351 352 353 354 353 352 351
334 334 327 330 333 331 334 330 332 333 328 333 331 326 324 325 323 332 339 340 339 336 329 330 329 330 331 332 332 331 332 331 332 335 337 339 341 342 341 343 343 343 345 345 347 349 350 351 351 352 353 352 348 348 348 348 349 350 349 349 351 353 353 352 351 351 352 353 353 353 353 354 355 353 352 353 356 352 352 351 350 353 351 350 351 351 351 353 355 356 352 358 354 355 348 346 349
335 331 328 326 324 322 333 336 332 332 331 332 331 313 316 323 327 333 338 336 336 336 335 329 328 328 329 329 330 329 331 331 332 334 337 340 341 342 342 344 345 344 343 346 348 348 350 351 353 353 352 350 350 349 348 348 350 350 350 350 353 353 353 352 353 352 353 354 354 353 352 353 355 352 350 350 350 349 349 348 350 350 350 350 354 361 356 354 352 353 353 354 359 353 347 347 349
320 328 323 315 312 311 330 332 330 328 332 330 330 312 312 319 328 333 338 338 334 335 336 329 327 327 326 328 328 328 331 332 334 336 338 339 341 342 343 344 345 344 346 346 347 348 351 351 353 352 354 351 352 350 349 348 350 350 350 351 352 352 353 352 353 353 354 354 354 353 353 353 355 353 352 349 349 349 348 348 350 350 353 358 356 359 355 353 354 354 357 350 348 347 348 352 353
323 315 308 313 310 312 324 335 331 324 329 331 328 312 314 319 326 335 338 338 337 334 337 336 326 325 327 328 328 327 331 334 336 337 338 338 340 341 343 343 344 345 345 345 348 350 350 351 353 352 353 351 350 350 349 350 350 350 351 355 351 352 352 352 352 352 352 353 353 351 352 353 355 352 351 350 349 350 351 351 350 356 361 359 361 356 359 349 352 353 354 354 347 346 349 349 351
314 309 309 309 312 312 319 327 332 332 328 328 326 314 317 320 327 331 339 336 336 336 335 336 331 326 327 327 327 327 332 333 335 336 337 338 339 341 342 343 344 345 345 346 348 349 350 351 353 352 352 352 352 354 354 352 351 351 352 354 352 352 351 351 351 351 352 353 353 352 353 354 354 352 351 352 350 350 353 355 355 355 361 358 359 360 356 360 353 353 352 356 350 345 347 350 350
300 311 307 311 311 314 311 325 332 330 329 322 327 321 321 323 328 331 337 335 334 333 335 336 331 326 326 326 326 327 330 332 333 335 337 339 342 341 343 347 345 345 346 347 349 349 349 350 351 352 352 353 353 353 352 351 351 352 353 353 354 351 351 351 350 350 351 352 352 352 351 353 354 352 352 353 351 355 355 357 355 359 361 361 360 359 357 358 354 354 352 354 359 352 350 349 348
301 306 307 310 317 318 315 317 325 328 329 324 324 323 323 324 328 330 334 338 335 335 334 334 330 325 326 326 325 328 329 332 333 335 339 339 340 341 343 344 344 345 346 347 348 348 348 348 351 353 351 351 350 350 350 350 351 351 351 351 350 349 350 349 349 349 350 353 351 352 351 352 356 352 353 355 356 358 354 355 356 357 363 361 358 353 352 356 357 356 354 353 355 356 353 352 351
309 310 308 310 312 314 315 322 330 329 323 319 321 317 320 322 325 329 332 333 334 335 334 333 334 330 327 325 325 327 328 332 334 337 339 339 340 341 342 342 343 345 346 345 347 347 346 347 349 350 348 348 348 347 348 348 348 349 348 347 346 348 347 350 348 349 350 350 353 353 352 351 352 356 354 355 361 361 355 358 358 361 361 359 356 351 349 350 353 354 353 362 354 352 355 352 348
304 305 311 312 313 317 323 326 329 328 321 317 318 319 319 321 322 325 329 333 333 332 331 332 331 331 329 329 329 326 327 332 334 337 340 339 340 341 341 341 342 344 344 345 345 345 345 346 347 345 346 347 346 345 345 346 344 344 345 345 343 345 345 347 348 348 350 349 352 352 352 352 352 356 360 360 361 367 357 357 358 361 362 363 358 355 354 355 355 359 359 355 356 350 349 352 343
305 305 309 312 314 313 323 324 327 327 320 317 320 319 318 319 322 324 327 328 326 327 330 332 330 327 327 327 327 330 331 332 335 336 339 339 340 340 340 340 343 340 342 344 344 344 346 347 346 346 347 346 346 345 346 346 345 345 344 344 344 344 345 346 344 346 347 350 350 351 353 353 354 357 364 362 363 357 355 358 359 360 361 359 361 363 360 368 363 355 354 349 356 353 348 352 346
304 300 305 310 312 319 324 325 326 326 322 316 320 317 317 319 321 323 324 326 326 328 330 332 330 327 329 329 330 331 332 332 332 336 338 339 340 339 340 341 341 342 342 343 344 345 345 346 346 347 347 347 346 347 346 344 345 347 345 345 344 344 347 349 347 348 349 348 349 352 354 354 355 357 361 364 362 360 357 357 356 360 360 363 362 356 356 355 355 355 351 350 351 350 353 356 351
300 298 298 306 314 313 308 321 325 326 321 316 318 317 317 322 323 323 325 326 327 331 334 333 332 328 328 328 329 330 331 331 331 331 339 338 339 339 339 340 340 341 342 343 344 344 345 347 347 347 348 348 347 349 350 346 346 346 347 347 346 346 344 349 348 348 346 347 348 352 355 354 355 355 360 362 363 360 358 357 357 360 359 361 359 356 356 355 353 352 351 356 352 344 346 350 361
299 303 300 304 315 313 313 316 322 325 324 322 318 313 313 319 319 321 326 332 333 331 332 332 333 334 334 333 333 332 331 335 334 334 335 337 338 338 339 340 340 340 342 343 344 345 346 346 347 347 347 348 348 352 350 347 349 345 346 346 348 346 348 346 344 343 344 348 350 350 352 353 355 355 356 362 363 359 358 357 357 358 360 360 361 357 355 356 355 354 352 356 354 348 345 351 354
296 299 301 301 317 315 316 320 320 312 310 319 314 301 303 311 320 320 324 326 327 330 327 328 330 332 333 330 330 333 333 337 334 336 336 334 337 338 339 340 340 340 342 344 345 346 347 347 348 347 347 348 348 350 351 349 349 343 342 340 340 339 339 340 339 340 342 346 348 350 352 353 354 354 354 357 360 362 357 357 356 357 359 360 361 357 356 356 356 356 354 356 354 355 350 348 349
294 296 302 300 310 317 317 318 316 304 303 313 319 301 298 308 316 320 323 324 326 331 328 330 331 331 333 332 331 330 331 331 335 335 334 338 337 339 339 339 340 341 342 345 345 346 347 348 348 348 347 347 349 350 352 354 347 344 343 341 341 340 338 340 342 343 344 347 347 349 350 351 353 353 354 355 356 361 359 359 356 357 360 360 364 360 355 354 354 352 359 355 353 360 352 344 346
292 298 301 301 310 317 318 318 314 308 317 317 318 310 303 302 311 319 320 322 324 325 327 329 331 332 332 332 335 331 332 332 333 333 334 335 338 338 339 340 341 342 344 345 345 346 346 347 348 347 348 350 350 349 353 354 348 346 343 343 343 340 340 341 342 343 345 348 345 349 349 349 351 353 353 353 355 360 360 359 358 358 360 359 361 361 355 354 354 360 362 359 359 359 350 347 347
296 299 301 300 318 318 319 316 312 308 310 304 312 315 303 301 307 317 320 317 319 321 324 326 329 333 333 332 334 335 335 332 332 331 332 333 335 338 339 340 342 344 344 344 345 346 347 348 348 348 348 349 349 352 353 353 354 350 346 346 344 343 343 344 346 348 345 348 344 347 347 348 349 351 353 353 355 358 364 359 359 360 360 358 366 363 358 356 354 357 358 357 356 355 352 357 350
300 301 307 301 306 319 318 311 302 304 299 300 308 312 298 298 304 309 316 316 317 319 322 325 327 330 333 334 333 336 339 336 336 334 334 334 335 338 343 343 344 343 345 346 346 346 347 348 347 347 348 347 348 353 353 352 354 355 350 346 345 344 348 346 344 344 342 344 343 346 346 346 347 349 353 354 353 358 363 362 360 360 360 360 364 360 356 355 355 358 356 355 357 356 358 356 350
301 302 300 296 296 297 302 298 295 294 291 293 311 312 305 296 303 308 310 312 317 320 323 326 328 330 334 337 336 338 339 339 335 335 336 336 340 339 342 341 341 344 345 345 346 345 346 347 347 346 348 348 348 353 352 352 353 353 351 347 346 345 346 346 342 341 342 342 342 345 346 346 347 349 351 356 355 358 360 361 360 359 358 361 363 359 357 356 357 358 359 359 361 355 353 355 355
303 301 295 292 293 294 295 295 295 290 286 292 308 310 309 297 301 309 315 320 323 322 322 324 325 327 330 334 337 339 340 342 341 337 337 336 338 340 341 341 341 340 343 345 346 345 346 347 346 345 348 348 347 352 352 352 353 352 351 349 346 346 346 346 343 340 343 342 343 344 345 346 346 349 350 353 355 358 357 357 360 360 360 357 356 357 357 358 358 358 356 354 355 355 356 358 353
296 294 293 288 286 289 286 289 290 290 290 297 308 310 304 303 308 311 319 321 325 328 328 327 327 327 329 331 335 338 340 341 341 340 340 334 335 337 337 340 339 339 340 345 346 346 346 347 346 345 348 347 347 352 351 351 351 352 350 350 347 346 346 344 344 343 344 343 343 344 345 346 345 346 348 351 352 356 356 355 355 355 356 358 358 356 355 359 357 357 355 358 355 354 354 353 350
297 296 292 288 287 286 284 286 290 291 303 311 311 313 304 307 312 320 320 325 329 330 331 332 332 331 331 331 333 337 338 339 339 341 341 338 339 337 338 338 340 341 340 345 347 347 347 348 346 345 348 347 347 351 351 351 350 351 350 351 347 348 346 345 345 347 346 346 346 347 347 347 345 346 347 349 351 353 355 356 357 355 355 356 358 358 359 358 358 356 358 358 357 358 357 355 353
296 296 296 293 292 290 285 289 287 289 294 306 313 305 299 302 307 321 324 328 329 330 330 331 330 329 330 332 334 335 337 338 338 337 339 343 343 339 339 339 340 341 342 345 348 347 348 348 347 345 348 347 347 350 350 351 350 351 350 350 349 347 347 345 345 349 348 348 349 350 349 349 347 348 348 349 352 352 353 354 355 354 354 356 357 359 362 360 362 361 361 357 360 360 360 358 357
296 300 297 295 295 297 289 290 292 295 301 303 306 304 310 309 319 322 324 324 324 328 328 329 327 329 330 330 332 334 336 337 342 343 340 343 344 343 339 341 340 341 342 344 348 348 348 349 349 346 348 348 347 351 349 351 351 351 350 349 350 349 353 347 348 352 349 349 350 349 349 349 349 349 349 350 350 351 351 352 354 354 353 355 356 358 358 358 357 357 355 356 354 360 356 357 356
297 296 294 297 301 299 296 299 304 306 303 300 308 309 310 317 318 318 321 321 321 324 325 326 325 328 330 330 331 333 336 336 337 344 341 341 340 341 343 344 340 341 342 344 348 349 349 350 350 349 349 351 347 352 350 351 350 350 350 350 350 351 350 347 346 348 348 349 349 349 349 348 349 349 349 350 348 349 349 350 351 353 352 353 355 357 358 357 356 356 357 354 355 355 355 353 354
295 293 295 300 304 302 295 293 290 293 294 299 306 302 303 305 302 316 317 317 319 320 322 325 325 327 328 329 330 331 334 337 340 345 343 342 341 343 345 348 347 341 342 344 347 350 350 351 351 348 349 352 348 351 351 351 350 350 350 350 350 351 351 350 348 348 349 348 348 349 348 348 347 349 350 349 348 347 347 355 350 351 351 352 354 356 357 357 357 356 355 354 356 356 354 355 356
299 297 302 297 291 291 293 293 287 288 292 295 302 304 304 305 303 311 312 314 316 318 321 323 323 325 326 328 331 332 336 338 339 337 339 340 340 342 344 347 349 345 344 346 348 350 351 351 352 350 350 353 353 353 353 352 351 352 352 351 351 351 352 351 350 351 350 348 348 348 348 348 347 348 350 348 347 347 345 349 350 350 350 351 352 353 356 355 355 355 356 355 356 356 355 353 354
304 302 299 302 297 295 292 296 292 296 292 293 294 301 295 308 307 312 312 315 317 318 319 321 323 325 326 326 331 334 334 335 337 338 339 340 340 340 341 342 345 344 345 346 348 349 349 350 351 350 351 350 353 352 351 349 350 351 352 352 352 352 352 351 350 349 349 347 347 348 348 347 346 347 347 348 347 346 346 344 350 350 349 350 351 352 353 354 354 353 354 356 356 356 356 355 355
295 294 295 297 300 300 297 298 296 292 292 291 293 292 297 305 314 315 315 317 319 319 319 321 326 328 329 332 332 333 334 334 334 337 339 338 340 342 344 344 345 347 349 347 347 347 347 348 348 350 348 346 348 349 348 348 348 349 351 351 352 352 352 352 351 350 349 348 347 348 347 348 347 345 345 345 347 346 345 344 345 349 349 349 349 350 352 353 352 352 352 353 354 353 353 354 356
296 294 297 297 295 293 289 292 297 296 294 291 291 290 298 308 321 318 317 319 320 321 322 323 326 328 331 331 332 332 333 333 333 335 338 338 339 341 345 346 344 345 347 348 346 344 343 342 343 345 345 347 347 347 346 347 347 348 350 351 352 353 353 352 351 350 349 348 348 347 345 346 345 345 345 343 343 346 346 345 343 343 346 348 349 349 350 352 352 352 352 354 354 352 352 352 353
Wind_Speed
5 3 3 3 2 1 2 0 2 3 5 3 1 4 1 2 3 5 10 4 2 1 2 7 8 3 4 3 7 7 7 7 1 5 5 2 7 11 8 10 9 9 7 5 4 5 7 7 13 13 11 11 14 14 13 12 11 10 10 11 11 11 10 10 10 11 11 12 13 13 14 14 14 14 14 14 14 15 14 14 14 15 15 16 16 15 15 15 14 14 14 13 13 14 14 14 14
3 3 3 4 2 2 1 1 3 3 3 5 2 0 2 2 0 4 3 2 1 3 7 9 10 10 12 11 8 4 7 6 3 4 3 6 9 7 8 10 11 10 8 5 4 5 5 8 9 13 16 14 14 13 13 12 10 9 9 10 10 10 9 9 10 11 11 13 12 13 14 14 14 14 14 14 14 13 14 14 13 13 14 15 15 15 14 14 14 14 13 13 13 12 12 12 11
2 3 1 3 1 1 0 1 3 1 5 6 1 2 2 3 5 3 4 4 7 9 9 8 7 7 5 3 5 2 1 4 7 6 6 8 12 5 9 10 10 10 9 5 5 5 4 7 12 12 13 14 14 13 12 11 10 9 10 10 9 9 9 9 10 11 11 12 13 13 14 14 14 14 14 14 14 13 13 12 12 13 13 14 14 14 14 14 14 13 13 13 12 12 11 11 10
1 0 2 2 1 1 1 2 3 3 4 2 0 3 1 2 4 3 3 5 8 7 4 4 3 3 7 8 6 10 6 3 3 9 7 7 5 10 10 11 10 8 7 5 5 4 4 9 12 13 13 14 14 13 12 11 11 10 9 9 9 10 10 9 10 11 12 12 13 13 13 14 14 14 13 13 12 12 12 12 12 12 13 13 14 14 14 14 14 14 13 13 12 11 10 9 9
1 2 3 1 1 1 2 1 2 1 4 2 4 1 4 2 5 3 1 2 6 9 9 5 4 2 5 7 2 1 4 7 6 3 6 5 9 10 11 11 9 9 7 7 5 5 5 13 13 12 13 13 13 13 12 12 11 10 9 9 10 10 10 10 11 11 12 12 12 13 12 13 14 14 13 12 12 12 10 11 11 11 11 12 13 13 13 13 13 13 13 12 11 10 9 8 8
1 2 1 1 0 1 2 4 4 2 2 1 1 3 1 2 5 3 3 4 4 4 8 5 4 3 4 4 2 4 8 5 7 5 7 8 13 13 12 11 10 8 7 7 6 4 5 13 13 13 13 13 13 13 12 12 11 10 10 10 11 11 12 12 12 12 12 12 12 12 12 13 13 13 14 13 11 10 10 10 10 9 10 11 12 12 12 12 12 12 12 11 10 9 7 7 6
1 1 0 1 0 1 4 3 4 1 1 2 3 5 2 3 6 7 5 8 6 9 10 9 13 10 8 2 7 3 4 8 6 7 6 12 13 13 11 10 9 9 9 7 6 5 7 13 13 13 13 13 13 12 12 12 11 11 11 11 12 12 12 12 12 12 12 12 13 12 12 13 13 12 13 13 12 11 9 7 6 7 10 11 11 11 11 11 11 11 11 10 9 7 6 5 5
0 2 0 1 0 2 4 2 3 0 1 2 3 8 6 1 5 5 7 6 4 4 5 6 4 10 7 3 4 4 8 2 10 11 13 12 13 12 12 9 9 10 9 8 6 5 11 14 14 13 13 13 13 12 12 12 12 12 11 11 11 12 12 12 12 12 12 12 12 12 12 12 12 12 12 12 11 11 10 8 5 5 10 11 11 10 10 10 10 10 11 9 7 6 5 4 4
2 2 1 1 3 2 4 5 1 1 3 4 7 9 11 2 3 4 4 2 6 7 11 11 7 11 2 10 6 4 6 12 11 14 13 13 14 13 9 9 10 9 10 8 7 5 7 13 13 14 14 13 13 13 12 13 13 13 12 12 12 12 11 11 12 12 13 12 12 12 12 12 12 11 11 11 11 9 9 5 5 2 10 10 10 10 10 10 10 10 9 8 6 4 3 3 3
1 1 1 1 2 6 2 2 3 1 1 1 4 11 7 3 2 7 9 5 6 7 7 6 5 13 10 11 8 4 6 13 14 12 10 12 14 12 12 11 11 12 10 9 7 6 6 13 14 14 13 14 13 14 13 13 13 13 12 12 12 12 11 11 12 13 13 12 12 12 12 12 12 11 11 10 10 9 8 6 4 3 10 9 9 9 10 10 9 9 8 7 5 3 2 2 2
1 2 1 4 4 5 4 2 1 0 1 3 5 8 6 1 4 7 8 8 5 9 11 15 12 14 10 5 2 4 12 14 14 14 11 12 12 13 11 11 11 11 10 9 7 6 6 7 15 15 14 14 14 13 14 13 13 13 13 13 12 12 12 11 11 12 13 13 11 11 11 13 12 11 11 10 9 9 8 6 5 7 9 9 8 8 9 9 8 7 6 5 4 2 1 1 2
1 2 2 4 4 3 1 3 0 1 1 2 5 4 0 3 3 6 8 12 7 11 12 5 5 11 10 6 2 8 12 12 11 11 12 11 9 12 11 8 10 10 11 9 8 6 6 6 7 12 14 14 14 14 14 14 14 13 13 13 13 12 12 11 11 11 12 13 13 11 11 12 12 11 10 11 10 8 6 4 3 4 8 8 8 8 8 8 7 6 5 4 3 2 0 1 1
1 1 3 4 1 1 1 3 1 2 2 3 4 1 1 2 3 7 6 10 11 11 4 5 16 5 6 6 5 9 12 11 11 12 12 10 10 9 10 10 10 11 10 9 7 7 6 4 5 6 9 14 13 13 13 13 13 13 13 13 12 12 12 12 11 11 12 12 12 11 11 11 12 12 11 10 10 8 6 4 3 2 7 8 8 8 7 6 5 4 3 3 3 1 1 2 2
2 4 3 2 0 1 1 2 0 2 1 5 3 2 1 2 2 4 8 7 7 7 10 14 9 8 10 9 6 8 9 12 12 11 10 10 10 10 12 10 10 10 9 8 7 7 5 5 4 4 6 6 5 10 12 13 12 13 14 13 12 12 12 13 12 11 11 11 11 11 11 11 11 12 11 11 10 9 7 5 5 6 7 7 7 7 6 5 4 3 3 3 3 2 3 3 4
1 1 3 4 2 1 0 2 3 2 3 1 1 0 0 1 2 2 7 7 3 7 11 8 11 11 8 13 8 10 10 13 13 11 10 10 12 11 11 10 10 9 8 8 7 7 6 5 5 3 3 4 5 4 4 8 13 13 13 13 12 12 12 13 13 12 11 11 10 10 10 10 10 10 11 10 10 9 8 7 6 6 6 6 6 6 5 4 3 2 2 2 3 2 3 5 5
3 3 2 3 1 3 1 2 2 2 2 1 3 1 3 2 1 2 1 4 8 9 13 6 6 1 12 6 13 15 15 14 13 12 11 12 11 10 10 10 9 9 7 8 7 6 7 6 5 4 4 4 3 3 3 4 10 13 13 13 14 12 12 12 13 13 12 11 10 10 11 7 8 7 11 8 9 9 8 5 5 5 5 5 6 5 5 4 2 2 2 3 4 4 5 5 6
1 2 1 2 1 1 2 2 2 3 1 0 3 3 1 1 1 0 3 5 12 12 4 12 6 9 14 8 13 17 16 14 13 13 10 9 8 8 7 7 7 7 8 8 7 7 7 7 6 5 4 5 4 3 3 3 6 11 10 13 14 13 11 12 12 13 12 10 9 9 7 4 3 1 3 1 8 5 7 7 6 5 5 4 4 4 4 3 2 2 3 4 6 6 6 7 7
1 1 3 1 2 3 4 4 4 1 3 2 1 2 2 1 4 3 1 4 7 8 7 6 8 7 10 10 15 18 16 16 13 13 11 9 7 8 7 7 7 7 7 7 7 7 7 7 7 6 5 5 4 3 3 3 3 6 3 4 5 8 9 9 6 4 6 2 9 5 3 2 2 1 1 3 2 2 4 7 5 5 4 4 4 4 3 3 3 3 4 5 7 7 8 4 4
3 1 2 2 3 2 6 3 4 2 2 2 1 2 2 2 2 3 1 1 4 4 7 10 10 11 11 14 18 18 17 16 14 14 13 12 9 10 8 7 7 7 7 6 6 8 7 6 6 7 6 6 5 3 3 3 3 3 3 3 4 7 5 4 3 4 3 4 3 3 3 2 2 1 1 1 1 2 3 5 4 4 4 4 3 3 3 3 4 4 5 6 7 9 5 4 4
2 2 2 3 5 3 5 3 3 2 6 3 3 1 1 1 1 2 1 1 3 7 11 10 14 15 15 13 17 19 18 16 15 15 13 13 11 11 10 9 7 8 8 7 7 7 7 7 8 7 7 6 5 3 3 4 3 2 3 2 3 4 4 5 4 4 4 4 3 3 2 2 2 1 1 3 3 3 2 2 4 5 4 4 4 2 3 3 5 6 7 8 6 3 4 5 4
2 1 2 3 4 4 1 4 4 5 5 5 2 1 1 0 0 1 2 5 3 6 15 16 17 18 16 15 14 18 19 17 15 15 15 14 12 11 11 11 10 9 7 7 6 7 8 8 7 6 6 5 5 4 4 4 4 3 2 2 3 4 4 4 4 3 3 3 3 3 3 2 2 1 2 3 3 2 2 3 2 0 0 0 2 0 1 2 3 3 3 4 4 4 4 5 4
6 6 4 4 3 4 2 5 5 5 4 7 2 4 2 1 0 2 3 5 6 7 9 15 17 17 17 15 14 11 15 18 17 16 16 16 15 11 9 7 7 7 7 7 8 8 8 7 8 6 6 6 6 5 5 6 6 4 3 3 3 3 4 4 4 4 3 2 2 2 2 3 2 1 2 1 1 1 1 3 2 1 1 1 1 2 2 3 3 3 3 4 5 4 4 5 4
2 2 1 4 2 5 2 2 4 7 3 5 3 1 1 2 1 0 1 2 1 2 14 15 15 15 14 13 13 11 11 14 17 18 17 16 15 12 11 9 10 9 7 8 7 6 8 7 8 7 7 6 6 5 4 4 4 4 4 4 4 4 3 4 4 3 4 3 2 2 2 3 3 2 1 1 0 0 2 4 4 2 2 2 2 2 3 3 3 3 3 5 5 4 5 5 5
3 2 4 4 4 6 4 4 4 4 7 4 3 3 1 1 1 1 3 0 1 3 13 15 14 13 13 13 11 12 12 13 13 13 14 17 17 15 12 12 9 8 7 8 7 7 8 9 8 8 7 7 6 5 5 5 5 5 4 6 4 5 5 4 4 4 4 4 3 3 3 3 3 3 2 1 2 2 4 5 4 3 2 2 2 2 4 4 4 4 4 5 5 5 6 5 5
5 4 4 4 2 3 3 4 6 5 4 2 5 4 2 3 0 3 2 3 3 3 11 15 15 14 12 13 11 12 13 13 13 12 9 8 14 13 11 9 9 9 9 8 7 8 9 8 9 9 8 8 6 6 6 5 5 5 4 4 4 6 4 4 4 3 4 4 4 4 2 4 3 3 3 3 2 4 5 4 3 2 2 3 2 3 4 5 4 4 5 5 5 5 5 6 5
6 6 6 4 3 4 4 5 4 5 3 1 5 4 3 2 3 1 2 3 3 2 15 15 15 14 14 12 11 12 13 14 12 13 9 11 12 14 12 10 10 11 10 9 8 8 8 8 10 10 9 8 7 6 5 5 5 6 5 5 5 4 4 4 4 4 3 4 4 3 2 3 3 2 2 3 4 5 4 2 2 2 3 3 3 5 4 4 5 4 5 5 6 6 6 7 6
9 9 5 5 3 4 1 3 2 3 3 2 5 3 1 4 2 4 4 2 2 6 16 14 14 15 14 12 11 12 13 13 13 9 10 12 12 12 11 11 11 10 10 10 8 7 7 8 9 9 8 7 6 7 6 6 6 6 6 4 5 4 5 4 4 4 4 4 3 3 2 2 3 2 2 3 4 5 4 3 3 2 4 4 4 5 5 5 5 5 6 6 6 6 6 6 5
11 10 7 2 2 3 4 4 4 3 1 2 5 2 0 2 1 3 1 3 3 9 12 12 13 13 14 13 12 11 11 11 8 12 15 14 10 10 11 10 10 9 10 10 8 7 8 9 9 9 8 7 7 6 6 6 6 6 5 4 5 4 5 4 4 4 4 4 3 4 4 3 3 3 3 3 4 4 2 2 3 3 5 5 5 5 6 6 5 5 6 7 7 6 6 5 6
12 12 7 1 2 2 1 3 2 1 0 1 3 4 0 0 4 2 1 2 6 7 13 11 13 13 13 13 10 8 9 7 7 12 13 12 11 10 12 10 11 9 5 10 9 9 10 9 9 9 9 8 8 8 6 5 5 6 6 5 5 5 5 4 4 5 4 3 3 4 4 2 2 3 3 3 1 0 1 2 3 4 5 6 5 7 7 4 4 4 4 3 3 3 4 5 5
10 2 7 3 0 1 5 1 3 4 1 3 3 2 6 8 7 1 4 5 7 9 6 15 10 12 11 10 9 6 5 7 8 10 11 11 11 11 12 11 10 9 7 7 10 10 8 6 7 8 8 8 8 6 6 5 5 5 5 4 4 4 5 5 4 4 4 3 3 3 3 2 2 2 2 1 0 1 2 4 5 6 6 5 3 1 1 1 1 2 3 4 4 3 4 5 5
5 5 3 3 2 3 3 3 4 4 1 2 2 4 6 3 7 2 4 5 7 6 6 8 11 10 9 9 7 6 6 8 8 11 14 13 11 10 12 12 10 9 8 9 10 9 8 8 7 7 8 8 7 6 7 6 5 5 4 4 4 4 4 5 3 3 3 2 2 3 2 2 2 2 0 0 1 0 3 5 5 5 5 2 2 1 0 1 1 3 2 4 4 4 3 4 4
3 4 2 2 3 1 2 3 8 5 2 2 3 2 5 3 3 3 3 6 6 4 4 7 6 8 10 9 7 6 6 7 10 11 12 12 12 11 12 12 11 11 11 10 9 10 9 8 8 8 9 8 7 7 6 6 6 5 4 4 4 4 3 4 3 3 3 2 2 3 2 2 2 2 1 1 2 3 4 5 5 3 1 0 0 0 1 3 3 4 3 1 4 5 4 5 5
3 5 3 3 1 3 1 3 6 5 6 1 4 3 3 2 8 6 4 7 5 2 4 5 2 11 11 9 7 6 8 7 8 9 9 8 10 12 11 12 11 11 10 10 10 8 8 8 8 9 9 9 7 7 6 5 6 6 4 4 5 4 4 4 3 3 2 3 3 3 3 3 3 2 2 2 3 3 4 4 2 2 1 0 3 2 2 2 2 4 5 3 1 3 4 5 6
5 3 5 6 5 3 2 2 3 6 8 4 5 3 1 5 4 4 4 6 3 2 4 4 3 9 9 8 7 9 9 7 8 8 7 11 5 3 11 11 11 12 10 11 10 10 9 8 8 9 7 7 7 7 6 6 5 5 4 4 5 5 5 4 4 4 4 4 3 4 3 3 2 2 2 3 2 3 3 4 2 3 1 1 3 3 3 2 2 2 4 3 1 2 4 4 6
6 4 4 2 0 7 5 5 4 7 2 4 5 7 4 7 7 4 3 2 1 3 2 5 2 6 11 7 7 9 9 9 9 8 13 13 12 5 11 10 10 11 9 11 9 8 7 7 7 8 8 7 6 6 5 4 4 4 3 4 4 4 4 4 4 5 4 3 4 3 2 2 2 3 3 3 2 4 3 2 2 3 2 2 2 2 3 3 3 3 3 4 2 2 3 3 4
6 8 6 5 6 3 3 2 3 10 3 2 3 3 3 5 5 4 2 3 1 1 3 3 3 3 1 7 7 8 8 10 8 9 14 12 11 8 9 9 9 11 10 9 10 9 7 7 7 7 7 7 7 6 6 4 4 5 5 3 3 3 3 4 4 4 4 2 3 3 3 3 3 3 3 3 3 3 3 2 2 2 1 2 2 3 4 3 3 4 4 3 4 4 1 2 3
8 7 1 6 5 2 3 4 6 5 4 0 2 2 4 6 7 6 7 4 1 0 3 3 6 2 3 6 2 4 7 9 8 11 12 15 12 8 10 9 9 11 9 11 11 9 9 8 9 8 7 7 7 7 6 6 5 4 2 4 4 4 4 3 4 3 4 3 3 3 3 4 3 3 3 3 5 3 1 1 2 1 1 1 1 3 3 3 3 2 2 1 3 3 3 3 5
8 8 7 5 6 5 3 5 8 6 4 1 2 6 5 6 5 4 4 3 3 3 1 1 7 8 6 6 6 4 8 4 7 9 11 15 12 13 11 8 10 11 9 11 11 10 9 10 9 9 7 7 7 7 6 5 4 4 4 5 3 4 4 5 4 4 4 4 3 4 4 4 4 3 3 4 3 2 1 0 0 1 1 0 1 2 1 3 3 4 2 4 1 2 2 2 5
6 3 3 7 4 6 6 4 9 6 4 3 4 7 5 5 4 3 5 4 2 4 3 2 8 7 5 4 5 3 6 10 14 2 14 12 14 14 11 9 11 13 13 12 10 10 10 9 8 8 8 7 7 7 6 6 4 3 3 3 4 3 2 3 3 3 3 4 4 5 5 4 4 4 4 3 3 2 1 1 0 0 1 1 1 3 2 3 3 4 3 2 4 2 1 2 2
3 2 4 5 9 9 0 3 6 5 1 5 3 8 2 2 3 3 3 5 1 1 4 4 6 7 6 6 3 3 1 5 4 10 12 8 12 12 10 10 11 11 11 9 10 11 9 8 8 8 8 7 7 8 7 6 7 5 3 4 4 4 3 3 3 3 3 4 5 5 5 5 5 4 4 3 2 1 1 1 1 1 2 2 2 2 3 4 3 4 4 2 0 2 3 2 1
2 2 1 5 8 6 9 8 6 1 5 6 10 7 2 1 3 3 3 2 3 1 4 5 4 4 3 4 5 5 4 7 5 3 6 16 7 11 12 11 12 11 11 11 10 10 8 10 10 9 8 7 7 8 8 6 5 4 3 2 1 2 2 3 3 4 5 5 4 5 6 5 5 4 3 3 2 2 2 2 2 2 2 2 1 2 3 3 3 4 3 2 1 0 3 1 2
1 1 1 6 15 8 4 12 11 2 3 4 9 4 1 3 4 5 1 0 3 0 3 4 3 3 5 7 6 3 3 6 5 6 7 6 15 4 11 13 12 11 11 11 11 10 10 8 9 8 7 7 7 7 7 6 6 7 6 6 6 5 4 5 6 7 5 5 7 5 4 5 5 4 4 3 3 2 3 3 2 2 3 3 2 3 3 3 4 4 4 3 1 1 1 2 3
4 2 0 4 11 11 15 14 8 4 7 10 5 4 3 1 3 3 2 3 4 1 2 2 4 5 2 5 8 8 9 7 5 5 8 5 6 13 9 13 14 13 11 11 10 10 11 10 9 8 8 7 6 6 6 7 6 6 7 7 6 6 6 5 4 4 5 5 5 5 5 4 5 5 4 4 3 3 3 3 3 3 3 3 2 3 3 4 3 4 1 3 2 2 2 1 2
0 2 0 5 9 14 17 17 11 3 1 3 7 1 5 1 6 2 4 3 5 4 4 4 5 5 6 4 5 7 8 10 7 8 5 5 7 6 9 14 13 14 13 12 11 10 11 10 10 8 7 7 5 5 6 7 9 7 6 6 6 6 6 6 6 5 5 5 5 5 4 5 5 4 5 4 4 4 4 4 3 3 3 3 3 4 4 3 3 3 2 2 2 1 1 0 2
2 2 3 3 14 15 15 12 8 4 8 3 7 2 3 1 2 1 0 2 5 8 8 8 5 5 5 5 5 4 5 9 9 7 8 6 8 9 8 8 13 14 14 13 12 12 11 11 11 8 8 7 6 5 6 6 7 8 8 7 6 6 7 6 5 5 6 5 5 4 5 5 5 4 4 5 4 4 4 4 3 3 3 4 3 4 3 3 3 3 1 0 1 0 0 1 1
2 3 0 3 7 12 16 9 8 2 4 5 11 9 3 2 1 1 0 1 6 8 9 8 5 6 7 4 4 4 3 3 4 7 8 7 9 10 7 10 8 14 13 13 13 12 12 10 11 10 9 7 5 5 5 5 5 6 6 6 7 6 6 5 5 6 6 5 6 5 6 6 5 5 4 4 4 4 4 4 4 4 4 4 3 3 2 3 3 3 3 2 1 1 1 1 1
3 1 1 2 4 4 3 4 5 5 5 9 16 14 7 1 5 6 5 4 3 3 3 3 3 2 3 5 4 3 4 4 4 3 4 4 8 12 9 8 11 11 11 13 13 13 12 12 12 11 9 7 6 6 6 5 4 5 4 4 6 6 5 6 6 4 5 4 6 5 5 6 5 6 5 4 5 4 4 4 5 4 3 3 4 3 3 3 5 4 3 2 2 3 3 2 1
1 0 1 3 4 4 2 1 2 2 4 5 11 11 3 5 2 1 3 4 3 2 3 3 3 3 3 3 4 5 4 3 1 2 2 3 4 10 11 9 9 10 8 12 13 12 12 12 12 12 9 9 7 6 7 5 5 5 4 4 4 5 6 6 7 6 6 7 7 6 5 5 5 5 4 4 4 4 4 4 4 4 4 4 5 4 3 3 3 3 2 2 3 3 2 2 1
4 3 5 3 3 3 2 2 1 2 3 4 12 10 5 5 2 4 2 3 4 4 5 6 4 4 2 3 3 3 5 4 2 2 2 3 6 7 10 11 8 8 13 11 14 13 12 12 13 13 10 9 9 8 8 7 5 5 5 4 4 4 5 5 6 7 6 7 7 6 5 6 6 5 5 5 5 5 4 4 4 5 4 4 4 4 4 3 3 3 3 3 4 4 4 4 3
1 0 2 2 1 1 1 3 1 2 2 5 6 3 5 1 2 6 5 3 4 6 6 7 8 9 8 3 2 2 3 3 2 1 0 3 3 2 9 10 9 9 8 9 14 13 12 11 13 13 12 10 9 9 8 8 7 6 5 5 5 4 5 5 5 6 6 6 7 7 7 7 7 6 5 6 6 5 4 5 5 5 5 4 4 4 3 3 2 3 3 2 3 4 3 3 4
3 5 6 6 5 3 3 2 4 4 3 2 8 4 2 2 0 8 4 4 7 6 6 5 7 7 8 10 10 8 5 4 2 1 2 3 0 5 1 11 11 10 11 11 12 13 12 12 12 13 11 10 10 10 8 9 8 7 5 5 5 4 5 5 5 5 6 5 5 6 6 6 6 6 6 6 5 5 5 5 5 6 5 5 4 4 3 3 2 1 1 2 2 2 3 3 3
1 2 4 5 2 4 2 6 4 3 4 5 7 2 3 2 5 5 4 7 7 6 6 6 5 3 5 6 7 6 4 5 6 1 4 1 0 1 3 2 12 12 14 14 12 12 13 13 13 13 13 11 11 10 9 9 8 7 5 5 5 5 4 4 4 4 5 5 6 5 6 5 6 6 5 4 6 5 5 6 5 6 5 5 4 4 4 3 3 2 3 3 4 2 2 2 4
3 4 1 4 5 5 1 4 6 8 7 3 2 2 3 2 2 2 7 7 7 4 4 4 4 4 2 3 1 3 5 6 2 3 3 2 1 1 0 1 9 14 15 13 13 14 14 13 12 11 9 8 10 10 10 9 8 7 7 6 5 5 6 6 6 5 5 5 5 5 5 5 5 5 6 5 5 6 6 6 6 7 6 5 5 4 4 4 3 3 3 3 5 4 3 3 3
4 1 6 3 2 4 3 0 2 5 6 1 1 2 2 1 3 3 5 7 5 4 2 2 4 5 7 6 5 5 7 5 3 1 4 2 2 1 3 3 1 9 12 11 11 10 10 12 13 14 11 11 10 9 9 9 9 8 7 7 7 6 6 6 7 6 6 5 4 4 4 4 5 6 6 6 5 6 6 8 7 7 7 6 6 5 5 5 4 4 4 4 5 4 4 3 3
5 6 2 2 1 2 4 3 0 3 2 1 2 1 1 0 3 3 6 5 7 5 4 4 6 7 6 5 5 5 3 2 4 4 4 4 7 9 10 9 6 2 8 10 10 9 10 10 12 14 14 12 14 11 9 7 8 8 8 9 9 7 6 6 6 6 5 6 7 6 6 6 5 5 6 5 5 5 5 6 7 8 7 6 6 6 5 5 5 5 4 5 5 4 4 5 5
1 3 5 0 5 3 2 0 2 6 3 3 1 0 2 3 2 2 6 5 5 6 6 5 5 4 4 4 5 4 4 5 4 6 6 5 7 6 9 13 13 8 2 8 10 9 12 11 13 12 9 5 7 10 11 12 10 8 8 8 8 8 7 7 7 7 7 7 7 8 8 7 8 7 7 8 7 7 6 6 6 8 8 7 6 6 6 5 5 5 5 5 5 4 5 5 6
4 5 3 2 0 2 4 3 2 5 6 5 5 1 3 3 3 4 6 4 3 3 4 2 4 4 4 5 5 5 4 4 4 5 5 5 5 5 5 6 9 11 8 3 3 8 9 9 11 10 11 9 9 9 8 9 9 9 8 9 9 8 9 8 8 8 8 8 7 7 8 9 7 8 8 8 8 8 7 6 6 6 7 7 7 7 6 5 5 5 6 6 5 5 5 5 5
4 3 2 3 2 3 3 1 4 3 7 4 4 3 2 3 2 5 2 3 2 2 3 2 5 6 5 5 5 6 5 4 3 4 5 4 4 2 4 7 7 5 8 8 4 6 7 9 10 11 7 0 7 7 8 7 7 8 9 8 10 9 8 7 8 9 9 8 8 6 4 4 7 9 9 9 9 8 7 8 8 7 6 7 7 7 7 6 6 6 7 6 6 6 6 6 5
Wind_Direction
157 154 171 182 153 159 132 355 61 329 57 42 30 15 122 170 212 141 189 188 151 39 117 76 64 42 152 170 131 110 31 134 147 149 202 173 137 142 148 135 135 137 139 150 160 144 129 151 150 126 120 128 130 124 121 119 120 124 122 121 120 119 119 120 122 120 118 114 112 111 108 108 110 110 108 107 105 104 106 109 110 111 111 110 107 103 100 98 101 101 102 101 100 100 100 101 102
161 172 205 157 172 135 287 163 100 18 39 69 357 245 255 306 122 125 137 146 164 114 87 88 88 78 90 116 144 117 30 40 299 133 71 117 126 124 138 138 144 141 143 149 144 133 140 147 137 139 136 131 126 125 122 123 129 128 126 127 123 123 125 129 127 125 121 118 118 115 113 112 110 107 108 106 105 105 106 106 105 106 108 109 107 106 106 108 104 102 104 104 103 103 102 102 101
162 161 102 82 35 166 36 40 76 53 77 78 313 206 323 324 107 141 131 118 118 118 101 92 85 89 94 95 46 48 198 28 74 83 100 139 117 156 142 142 143 137 136 140 138 134 134 138 144 137 128 125 125 126 124 127 133 129 124 121 123 128 133 132 128 123 121 120 119 114 112 111 108 104 103 105 104 104 103 103 106 108 107 110 109 107 105 105 104 104 105 105 105 106 104 102 102
68 107 163 173 293 21 50 23 88 115 90 166 301 267 247 169 116 114 158 132 126 136 117 58 74 316 120 71 97 85 77 67 18 131 128 162 146 144 145 146 141 133 134 139 140 131 132 143 136 135 131 130 128 126 130 135 132 126 124 130 134 133 133 131 128 123 121 119 113 110 110 112 109 105 105 105 102 98 98 105 105 106 111 111 109 108 107 106 107 107 107 106 105 103 104 104 107
28 322 184 139 127 328 102 116 121 94 98 194 137 259 159 142 111 186 260 169 104 92 88 108 77 43 109 112 127 114 137 105 108 77 115 106 126 139 146 142 136 138 140 139 137 134 145 143 138 134 133 131 131 132 135 136 131 125 123 129 133 131 131 132 130 125 123 116 114 113 113 110 110 109 107 100 101 102 102 107 105 109 111 110 109 108 109 110 108 107 107 107 107 105 104 106 106
351 339 256 132 147 203 46 40 16 54 215 112 151 162 235 151 142 172 133 91 68 82 111 94 100 135 63 24 34 94 136 132 136 105 120 137 138 144 146 137 138 142 136 132 132 137 148 144 138 137 134 136 136 137 137 136 132 128 127 123 126 129 127 124 128 127 121 116 117 119 118 113 109 112 109 104 98 97 101 104 104 103 111 111 109 107 108 108 108 104 103 103 103 103 105 109 110
152 73 328 48 19 96 100 87 60 42 333 158 331 325 213 182 153 118 80 86 80 87 90 102 106 99 73 75 67 73 80 116 124 131 128 139 140 145 138 137 143 134 131 131 133 150 153 144 142 141 139 141 138 138 139 139 137 130 128 133 135 134 129 127 128 127 126 125 123 122 120 117 115 114 111 109 108 109 102 96 100 113 116 112 107 106 108 108 104 102 100 98 102 105 111 113 111
124 271 255 102 306 60 51 96 75 171 322 97 254 276 289 171 125 111 131 114 128 110 107 115 99 93 85 80 91 105 115 82 108 118 129 141 142 137 137 141 133 132 130 132 143 159 150 146 146 145 145 144 141 141 142 142 138 133 134 136 135 134 131 130 127 126 125 122 122 122 122 117 117 116 113 109 106 113 117 113 112 106 123 114 111 111 108 104 100 98 99 99 101 109 113 111 103
324 111 333 59 39 41 61 50 38 283 303 16 332 300 281 103 156 136 87 91 89 89 101 117 141 87 127 94 81 118 83 106 115 127 137 136 135 138 140 144 133 129 133 139 149 159 147 150 149 150 149 148 146 144 147 144 143 140 137 137 137 135 132 131 130 129 127 129 128 126 122 118 117 115 113 111 109 113 117 115 115 109 122 119 117 116 111 103 98 95 95 102 108 115 112 103 95
320 49 331 97 118 66 72 352 68 319 328 305 259 275 289 334 47 89 121 84 107 99 82 69 91 104 118 95 108 107 123 119 126 133 145 139 140 142 146 145 135 134 137 145 153 147 152 151 154 154 154 153 149 147 150 150 148 145 142 143 140 136 135 135 132 130 129 131 131 128 128 123 119 117 116 116 119 115 108 113 128 137 126 123 123 117 110 104 100 100 100 105 115 115 116 90 58
350 17 144 59 30 75 76 97 88 324 251 283 259 247 262 318 78 88 111 115 112 108 102 102 86 111 113 101 72 113 121 130 138 146 152 143 146 143 141 134 135 136 141 145 145 149 155 155 159 160 159 156 152 149 153 153 151 149 146 146 143 141 138 137 133 130 130 134 133 133 131 127 126 124 121 122 124 118 113 115 114 120 123 127 125 116 109 107 106 106 111 115 121 131 115 70 41
345 21 25 86 43 130 215 119 137 223 279 297 329 270 247 30 85 97 113 112 123 122 133 144 124 124 102 113 118 132 134 142 145 145 143 145 138 136 134 135 134 136 139 142 144 150 153 161 158 163 161 158 153 152 153 155 154 152 150 148 149 143 140 136 133 132 132 134 136 138 135 130 129 128 129 130 125 113 117 117 103 83 125 132 128 118 108 107 112 116 121 133 148 153 176 355 327
141 83 79 76 222 52 175 94 191 171 17 294 235 256 269 50 109 137 133 132 137 135 120 112 131 131 117 130 144 136 147 157 148 147 143 144 143 134 129 132 134 135 139 144 149 150 149 154 163 162 164 160 156 152 153 155 154 153 151 151 150 142 140 135 133 134 134 134 138 139 137 135 137 136 136 131 124 125 124 137 133 151 136 133 125 115 113 113 117 123 137 149 159 194 248 297 311
126 180 119 111 292 5 138 139 197 136 239 232 219 256 160 117 208 151 140 138 152 136 136 133 123 122 104 115 144 155 159 155 149 144 146 147 136 133 136 135 137 139 143 149 149 147 142 151 160 168 163 153 155 154 152 152 154 154 153 152 149 147 142 137 135 138 138 139 137 138 137 137 139 139 138 137 138 135 145 158 184 149 134 131 122 120 120 122 123 137 155 184 185 209 279 295 303
141 130 86 125 98 234 202 137 191 198 169 207 264 71 41 261 121 115 135 130 88 129 127 138 137 124 174 154 164 169 159 153 148 144 148 138 136 139 135 136 138 139 144 150 147 146 151 154 167 178 150 152 158 156 154 155 154 154 152 154 153 156 151 146 141 142 142 144 144 139 140 137 136 139 140 141 145 150 158 174 153 129 131 131 123 124 125 128 142 159 211 224 246 267 287 299 295
160 82 93 109 158 135 227 118 190 107 185 177 316 74 72 328 217 108 185 137 125 136 151 131 186 138 159 162 154 156 152 148 143 148 148 143 137 134 134 134 138 143 146 148 153 156 160 168 173 165 157 160 155 152 157 154 159 156 155 157 156 159 156 150 147 144 147 145 148 142 140 137 135 140 146 147 145 147 147 145 150 133 127 129 130 131 132 141 167 184 228 267 275 286 294 294 288
129 87 50 40 142 143 232 153 144 169 200 14 310 32 114 280 317 259 139 111 135 157 180 154 168 136 149 148 142 146 146 140 142 149 139 130 132 133 135 138 140 145 155 161 160 166 171 168 168 162 166 160 156 142 128 142 163 159 157 159 158 159 160 154 151 149 149 148 144 145 120 77 64 72 94 74 140 140 146 155 157 144 134 135 141 144 144 170 191 236 258 277 285 290 293 293 297
61 94 114 24 190 140 205 174 178 199 126 216 17 349 99 55 349 312 27 57 141 158 135 139 108 126 126 131 131 140 144 141 145 139 138 134 138 142 145 147 150 161 162 164 164 170 164 169 170 165 162 163 156 144 140 152 163 142 133 149 150 159 164 155 143 134 134 129 139 104 96 102 86 112 108 99 47 120 150 154 153 146 147 157 159 164 180 204 232 252 274 283 287 295 294 303 311
116 133 95 214 186 226 162 183 202 119 194 161 184 27 100 157 265 335 51 158 156 120 122 129 118 111 117 126 128 138 145 146 148 145 146 147 153 154 154 154 159 154 163 162 168 165 171 169 171 170 169 163 157 145 143 138 111 98 111 121 145 161 143 108 107 103 71 99 102 118 102 100 117 61 80 95 98 106 155 155 158 160 169 179 179 196 203 232 247 259 270 282 284 289 302 319 314
261 107 199 250 206 190 173 155 176 159 140 131 163 100 100 288 66 290 125 133 131 125 133 132 130 135 139 139 135 141 148 152 151 151 152 157 161 159 160 165 161 167 165 165 165 167 171 174 180 173 167 160 145 138 118 121 115 99 112 102 107 105 104 108 107 107 99 109 107 100 109 100 78 49 184 151 89 31 4 170 172 182 189 192 208 233 259 265 258 267 269 273 284 300 307 298 298
208 96 198 225 190 123 205 137 132 134 141 135 153 177 78 267 96 75 312 75 106 157 148 150 146 145 146 148 146 146 150 155 154 156 157 164 168 170 168 171 166 165 165 155 159 174 175 175 176 167 159 152 146 147 145 141 133 129 120 121 121 119 115 107 113 110 111 113 113 113 115 102 79 48 21 22 47 19 358 335 350 359 41 334 267 169 298 303 314 319 304 297 292 276 272 273 275
128 199 199 187 158 83 200 126 124 115 125 109 122 124 203 320 131 54 63 120 153 166 155 144 145 147 146 151 152 150 152 154 158 162 166 168 171 172 167 159 151 150 153 162 172 175 179 175 166 152 142 148 160 160 158 154 147 153 152 160 131 125 122 118 132 135 125 134 131 137 115 93 95 71 33 43 48 27 341 292 271 251 168 228 292 280 277 271 271 285 285 280 272 273 266 266 263
106 251 190 204 171 154 244 131 136 134 122 122 116 205 81 54 318 230 84 137 124 321 141 142 142 145 146 144 151 154 149 154 163 169 173 171 171 171 165 161 160 160 167 174 174 178 179 171 156 145 146 152 158 157 149 139 151 156 163 167 150 148 133 128 146 146 146 157 158 155 120 128 143 133 126 80 138 258 260 249 231 221 215 238 258 248 262 257 255 265 266 265 270 267 263 256 259
126 203 193 154 157 158 204 129 98 101 116 146 161 134 89 86 119 18 344 186 197 327 147 141 139 139 142 147 160 156 156 165 178 180 174 172 170 169 166 163 164 159 163 173 176 175 178 170 155 150 151 157 154 155 151 155 152 158 177 175 150 170 148 145 152 165 156 159 166 167 149 152 162 149 159 164 211 238 256 235 224 225 233 241 246 244 260 266 258 248 251 255 255 256 261 261 259
155 160 173 141 184 129 140 97 89 99 76 98 119 122 181 131 226 5 276 57 306 59 149 139 140 142 147 154 161 162 166 175 183 189 182 155 158 159 160 155 159 161 169 175 170 168 176 164 156 156 160 159 154 156 158 156 156 162 183 167 152 183 143 153 159 157 155 165 169 172 162 156 165 151 172 193 197 233 246 238 224 241 243 253 243 252 241 259 259 250 250 256 256 258 255 260 251
213 145 137 192 170 101 114 85 97 104 115 88 99 69 64 25 307 241 247 57 349 49 148 145 143 146 154 165 168 171 176 184 184 190 174 138 147 154 159 160 162 169 175 172 167 167 167 157 159 162 165 158 157 151 150 152 161 169 184 174 173 173 160 153 166 162 159 169 173 167 170 154 172 172 181 195 200 232 236 246 253 265 262 256 239 255 240 242 252 250 250 254 255 255 259 257 254
137 123 129 171 141 116 139 143 130 95 85 5 133 101 5 333 70 249 47 28 34 64 151 152 152 156 161 172 175 182 183 188 188 177 135 143 148 154 159 160 166 171 168 171 169 166 162 153 159 160 158 155 152 153 156 157 160 179 184 164 182 173 166 158 169 176 160 184 169 160 182 176 176 193 212 210 216 224 236 242 263 262 270 261 238 249 248 239 245 242 240 244 250 251 250 253 249
110 119 109 79 128 60 104 104 129 135 39 40 106 99 47 335 36 221 249 325 35 103 130 161 161 162 167 176 182 187 190 191 178 141 146 148 158 158 161 164 167 165 163 169 168 163 161 158 158 155 156 153 151 153 159 159 164 174 178 161 182 168 161 167 172 181 174 181 165 172 185 195 173 190 220 236 214 208 230 265 266 265 259 262 244 245 253 244 242 250 248 239 234 224 229 218 216
135 137 110 184 68 66 239 163 155 79 85 142 134 71 307 128 226 205 14 37 49 91 148 195 173 168 171 177 182 186 193 175 143 143 149 155 162 161 159 168 165 164 162 157 161 159 160 160 152 152 154 154 155 161 163 154 154 172 175 170 170 163 165 166 173 182 176 182 173 175 195 178 178 194 224 238 261 77 8 289 269 253 253 251 246 236 234 242 220 244 274 290 293 329 340 330 326
143 305 137 127 276 315 233 32 96 80 355 172 156 201 229 206 224 82 17 65 64 53 338 195 174 176 171 174 179 173 168 135 149 142 146 158 161 162 156 168 166 161 151 149 156 161 161 155 147 151 156 157 162 156 153 155 166 173 175 161 165 158 159 169 176 177 173 181 172 183 175 176 206 226 246 294 35 30 328 285 263 259 252 244 248 289 192 223 323 336 301 329 327 354 332 318 333
161 124 48 143 104 261 163 174 155 87 269 207 31 192 278 242 222 185 36 52 94 101 286 207 178 170 164 168 166 159 141 146 144 143 150 157 158 160 158 162 164 152 143 151 162 162 155 151 150 153 154 155 157 152 157 161 160 168 174 169 159 155 158 164 167 160 167 165 161 188 171 188 223 238 254 255 293 215 270 273 264 256 252 283 281 236 5 17 320 309 320 321 322 337 332 318 328
132 115 285 295 194 256 265 170 169 148 147 277 106 292 247 268 227 92 34 62 65 87 274 321 193 154 162 164 157 140 141 141 144 149 150 152 152 158 157 159 157 153 156 156 153 152 153 153 154 146 150 157 156 155 157 161 161 165 177 170 143 147 152 161 162 162 153 150 177 189 186 208 216 232 201 176 248 248 254 271 260 248 297 119 38 28 284 308 331 323 315 307 324 320 344 324 325
194 156 223 238 111 205 320 228 187 141 121 184 212 200 335 357 21 344 24 54 69 79 336 333 348 157 159 162 151 138 142 144 145 153 154 132 149 152 156 158 157 158 156 154 152 150 154 155 152 144 151 152 148 144 147 154 153 163 172 162 163 150 155 166 168 161 157 173 187 185 195 208 208 203 201 215 231 261 267 263 282 350 293 110 44 14 348 316 329 318 307 305 221 287 323 314 317
262 153 182 208 173 164 233 317 166 138 131 184 221 264 163 108 150 250 23 56 9 112 357 333 354 162 158 154 151 145 148 150 151 155 110 100 94 153 154 158 157 158 160 157 157 158 161 158 146 148 143 140 141 139 146 149 153 151 146 141 161 157 159 161 174 167 189 183 182 197 198 209 199 205 210 230 233 263 269 269 354 336 44 44 48 13 330 322 308 288 293 301 271 289 311 312 311
210 197 148 212 284 186 157 162 205 128 135 145 188 221 280 159 186 179 60 28 350 62 319 309 349 162 155 164 148 156 151 159 163 149 122 132 150 175 150 149 149 159 160 159 160 157 154 143 137 143 140 142 137 132 132 134 128 122 124 134 137 149 155 162 174 177 197 180 196 199 191 206 212 200 221 229 224 252 272 273 24 340 19 39 45 11 335 341 340 337 290 290 324 273 248 278 282
234 200 186 150 155 202 181 245 133 143 143 119 162 206 142 165 163 125 83 267 320 336 286 295 63 41 183 159 155 159 157 168 168 144 136 142 155 160 145 150 150 158 159 156 155 153 148 135 135 134 141 141 132 128 134 132 127 143 145 119 124 156 164 168 188 188 194 204 195 194 190 206 218 210 221 226 234 233 248 34 355 8 2 51 12 335 314 326 327 321 317 331 332 326 280 286 316
274 286 172 181 135 95 96 111 164 136 93 115 178 112 129 155 151 142 179 184 196 252 301 310 75 54 53 13 356 159 163 172 170 149 147 145 155 156 155 157 158 155 155 151 153 154 153 144 140 145 149 144 142 145 153 152 147 146 135 171 175 168 174 177 187 201 196 216 203 201 193 202 222 224 221 217 224 231 180 71 18 37 5 68 215 255 265 292 285 272 292 329 337 339 329 344 334
242 234 152 171 154 163 150 150 155 167 108 34 101 112 132 141 150 175 174 153 203 171 241 1 76 78 104 180 141 31 338 327 156 142 148 148 162 156 161 158 149 149 156 154 154 155 152 147 148 148 148 150 154 158 158 163 173 180 162 172 160 160 171 177 191 207 208 207 217 201 201 203 215 218 210 207 205 179 160 129 59 357 29 162 224 266 284 298 317 333 349 349 351 20 319 342 323
236 97 145 128 56 85 70 106 159 167 80 151 142 116 140 151 173 194 184 184 206 186 171 151 101 124 133 213 111 40 38 29 340 188 154 157 155 152 153 147 148 151 156 157 153 148 151 146 148 151 154 158 159 161 160 171 183 188 170 161 165 152 181 181 186 191 207 215 215 202 197 199 203 210 206 203 186 193 155 166 226 359 291 274 269 303 314 312 312 314 340 20 315 355 312 294 353
118 87 102 178 162 139 219 223 168 180 103 162 136 112 125 130 165 206 214 177 207 151 136 117 119 144 160 188 148 100 125 91 34 356 328 171 153 145 141 142 145 147 150 151 152 151 151 147 151 154 160 159 161 167 175 181 179 174 166 168 162 168 172 174 177 175 209 222 219 197 192 190 196 199 208 209 207 177 170 190 257 310 267 249 214 258 308 294 312 315 333 335 181 4 340 314 332
338 157 86 128 164 218 152 186 157 106 54 117 98 54 8 353 164 216 214 228 123 19 84 86 70 104 133 127 94 150 192 137 147 98 44 317 180 151 147 148 146 148 152 155 155 155 157 157 157 158 160 164 169 173 178 178 164 145 145 124 152 109 100 151 167 210 204 211 200 187 192 186 190 195 202 204 210 206 201 197 204 263 245 253 227 240 272 264 279 277 273 274 235 129 336 318 307
336 316 180 189 188 160 117 137 142 95 60 248 142 73 282 264 230 201 272 70 143 41 123 119 116 131 131 132 137 157 132 125 150 135 155 190 308 198 144 150 152 151 155 161 158 157 149 155 155 157 158 166 173 181 177 164 174 167 156 153 173 178 176 175 193 198 198 195 194 187 178 188 186 191 201 205 213 206 217 218 206 227 244 259 248 236 249 282 292 286 262 212 227 206 177 34 329
79 275 263 309 180 149 142 137 129 148 165 213 209 116 236 316 243 228 265 190 223 225 136 160 149 151 157 148 162 164 159 157 154 151 158 189 177 292 168 157 157 157 160 158 160 156 153 154 160 160 166 174 178 183 166 167 176 178 175 177 178 179 179 211 206 197 188 193 165 171 187 196 189 188 205 204 210 213 210 212 207 219 233 239 246 240 256 250 263 280 210 146 195 159 97 26 313
38 239 158 9 124 140 150 156 168 166 112 124 198 114 137 230 252 276 326 284 244 248 245 205 167 169 165 176 189 190 164 164 154 158 166 165 181 208 272 166 163 161 160 160 159 159 158 158 161 166 169 178 187 178 158 168 172 182 184 176 182 182 184 194 192 192 182 170 161 174 181 200 201 200 203 206 206 206 205 211 212 223 237 251 242 227 234 244 245 264 210 194 153 145 134 206 276
205 267 120 62 136 143 158 166 181 184 121 139 211 180 60 235 260 306 32 248 249 244 232 230 184 169 176 185 190 211 186 170 165 161 170 172 178 198 237 227 167 160 160 164 161 163 163 161 162 166 172 179 188 170 162 171 155 164 175 166 174 185 183 181 176 176 170 170 166 176 183 201 208 217 214 208 206 199 203 210 215 228 229 245 251 256 245 231 222 205 224 157 208 307 203 168 119
276 220 74 102 137 152 166 161 170 148 80 182 208 194 119 268 275 302 348 225 249 237 236 241 235 189 169 181 216 201 230 201 183 170 165 178 174 197 163 336 262 166 166 161 160 160 164 164 165 167 174 178 177 167 158 173 159 138 145 167 162 174 174 163 159 170 172 171 176 186 191 198 208 217 220 213 205 201 197 206 210 221 230 242 257 252 244 226 235 224 206 198 180 256 297 166 214
201 43 75 9 42 132 155 151 131 104 205 218 196 194 151 182 238 199 148 225 222 258 269 259 260 251 179 173 188 222 223 213 192 183 172 178 186 168 142 164 300 291 169 159 158 163 163 164 167 172 176 175 170 165 158 175 174 145 147 169 168 169 170 161 167 166 166 175 184 192 192 205 205 209 210 215 202 203 201 201 204 217 231 243 257 263 256 224 218 213 225 203 172 202 255 253 320
134 329 123 38 329 5 48 330 44 136 273 269 188 173 142 130 297 294 239 299 302 225 272 279 270 260 243 206 184 194 221 240 215 142 158 156 143 138 153 183 184 289 260 157 161 162 163 165 168 170 172 177 170 167 162 176 173 163 151 166 181 177 167 170 178 179 179 182 189 190 201 207 213 214 207 212 210 206 203 211 213 216 229 241 251 246 243 217 233 217 232 213 235 241 241 232 258
59 45 33 98 268 32 314 11 343 194 219 302 168 145 56 37 267 274 65 329 346 37 34 359 345 320 262 235 217 212 216 218 203 173 144 156 151 156 172 173 188 163 267 173 164 162 164 167 169 167 174 176 176 169 169 175 175 177 170 172 191 186 182 171 181 182 177 182 185 188 181 202 212 218 215 206 211 205 201 212 222 225 237 241 246 245 234 213 200 193 203 223 227 227 227 223 243
54 116 127 77 61 47 268 279 221 343 43 46 16 66 75 233 5 11 48 24 34 40 34 36 35 28 6 320 246 206 243 231 190 192 49 92 68 179 186 184 178 173 260 226 163 163 165 169 171 172 174 175 174 173 172 174 182 186 179 177 183 183 192 181 184 178 179 182 178 183 186 193 197 205 208 213 209 204 204 210 212 221 226 235 237 228 231 218 204 196 217 218 218 232 238 236 232
220 153 139 177 145 154 213 211 214 205 198 8 351 72 307 48 276 327 5 38 34 29 37 45 55 55 62 54 34 358 344 336 331 355 20 59 86 60 293 190 176 176 203 229 171 165 166 167 172 174 169 175 174 177 174 177 182 188 185 186 184 180 188 186 192 184 173 172 181 178 188 193 193 201 204 215 218 213 214 216 218 222 223 227 236 236 223 220 221 220 221 222 260 251 241 247 255
271 154 83 71 257 149 161 207 163 140 85 36 11 69 347 27 349 318 35 34 29 18 16 25 28 65 87 95 113 109 88 4 339 4 74 99 109 73 37 192 181 182 193 213 175 168 168 170 172 172 172 175 176 176 179 179 181 186 185 188 194 185 188 183 191 201 189 182 177 180 186 191 198 197 207 207 225 218 217 218 220 223 225 225 229 227 224 218 219 228 268 274 276 262 264 245 247
269 51 271 217 185 131 117 28 56 87 68 42 239 115 311 254 305 342 17 18 4 2 11 3 359 340 73 100 111 146 141 142 164 228 173 150 256 6 339 331 187 186 193 193 175 174 172 164 163 167 167 172 175 178 179 179 177 182 194 188 192 184 185 183 190 199 201 201 189 191 188 200 204 207 210 201 210 217 220 216 219 223 220 221 222 220 215 217 218 224 239 255 262 273 278 270 272
74 55 250 257 64 121 125 166 13 42 99 244 28 198 262 7 154 337 358 2 335 320 313 332 349 360 14 13 12 11 360 334 307 78 114 117 122 72 354 319 315 209 189 176 173 171 163 160 160 167 167 170 179 176 180 179 178 184 193 192 192 188 185 188 185 190 193 195 207 209 205 202 214 219 220 226 211 205 212 218 216 223 222 217 219 213 208 212 209 223 231 237 244 251 264 275 265
154 200 210 82 310 357 317 89 31 111 43 114 350 339 326 176 257 348 331 323 310 317 321 341 13 5 3 0 14 344 347 20 40 27 12 44 3 1 349 341 329 227 168 157 151 146 155 161 162 167 178 175 173 171 167 176 186 188 189 193 190 192 187 183 184 183 184 192 204 207 212 216 214 223 231 232 234 228 205 216 214 218 219 221 218 217 212 215 208 220 228 236 244 239 243 253 262
30 44 4 319 105 173 69 287 169 103 135 70 289 305 263 223 216 215 260 269 295 316 333 360 13 349 343 330 337 360 16 18 20 55 60 64 84 64 3 338 341 342 145 149 143 143 154 158 167 175 154 132 160 167 168 170 177 187 191 192 195 191 191 189 186 186 189 195 201 204 209 213 217 216 221 220 221 228 224 209 214 214 213 216 215 220 218 218 215 217 224 231 237 227 236 244 258
357 33 340 351 46 202 116 27 63 143 153 166 148 231 272 255 212 189 234 266 276 322 314 338 357 16 357 9 12 357 13 25 18 31 61 54 56 84 87 37 7 341 349 19 107 143 149 157 166 168 163 156 169 175 179 186 177 184 186 188 195 194 197 195 197 198 204 209 206 202 204 209 212 218 209 212 214 219 224 218 208 213 214 209 210 219 217 218 215 224 231 229 234 226 231 244 247
146 141 153 189 75 45 63 320 330 81 108 167 137 208 253 267 178 208 216 259 309 298 301 359 28 29 21 24 22 21 4 8 25 18 48 63 47 32 109 111 81 29 1 10 39 87 83 68 47 18 355 271 174 175 186 183 198 192 189 189 190 191 194 197 201 205 208 212 225 223 214 221 217 220 214 209 206 210 214 217 214 212 210 208 210 213 215 208 212 221 230 228 233 233 235 244 243